Location: Karcze
(52.0945°N, 22.4786°E)
Time: 01:54:23
(UTC+00:00)

Cosmos 1725 Rocket - Pass Details

Date: 14 July 2020
Orbit: 963 x 989 km, 82.9° (Epoch: 06 August)

Event Time Altitude Azimuth Distance (km) Brightness Sun altitude
Exits shadow 01:21:05 - 213° (SSW) 2,756 5.7 -8.0°
Reaches altitude 10° 01:21:13 10° 214° (SSW) 2,707 5.6 -7.9°
Maximum altitude 01:27:12 48° 288° (WNW) 1,252 4.5 -7.4°
Drops below altitude 10° 01:33:16 10° 2° (N) 2,742 7.2 -6.8°
Sets 01:35:54 0° 8° (N) 3,698 8.1 -6.5°
